Wind From: 13-12-2017 10:08 Until: 14-12-2017 06:00 warning for: Wind Level: Yellow info button

Although rather usual in this region, locally or potentially dangerous phenomena are expected. (such as local winds, summer thunderstorms, rising streams or high waves) Be aware and pay attention to the latest weather updates, especially if you carry out activities exposed to weather or close to a stream or shoreline. 


Meteo18 Weather Cam more information Meteo18 Weather Cam


Thunder radar more information blitzortung!


Rain radar more information rain snow radar


Visit our other weather sites:

Template documentation
and downloads

And another site



Weather Underground History page Text

Daily Summary for February 26, 2017 Units:  Metric    English   Both
« Previous Day
Next Day »
Daily Weekly Monthly Yearly Custom
  High: Low: Average:
Temperature: 10.9 °C 0.8 °C 6.5 °C
Dew Point: 8.7 °C -0.7 °C 4.2 °C
Humidity: 92 % 72 % 85 %
Wind Speed: 24.1 km/h 0.0 km/h 6.1 km/h
Wind Gust: 29.0 km/h - -
Wind:- - SW
Pressure: 1019.5 hPa 1014.8 hPa -
Precipitation: 0.0 mm    
Historical Graphs
 
 
Tabular Data for February 26, 2017
Time Temperature Dew Point Pressure Wind Wind Speed Wind Gust Humidity Rainfall Rate (Hourly)
00:02 3.5 °C -0.3 °C 1019.5 hPa Calm     76 % 0.0 mm
00:12 3.4 °C -0.2 °C 1019.5 hPa Calm     77 % 0.0 mm
00:17 3.6 °C 0.1 °C 1019.5 hPa Calm     78 % 0.0 mm
00:22 3.6 °C 0.1 °C 1019.5 hPa Calm   1.6 km/h 78 % 0.0 mm
00:27 3.4 °C -0.1 °C 1019.2 hPa Calm   1.6 km/h 78 % 0.0 mm
00:32 3.3 °C 0.0 °C 1019.2 hPa Calm   4.8 km/h 79 % 0.0 mm
00:42 2.7 °C -0.4 °C 1019.2 hPa Calm   4.8 km/h 80 % 0.0 mm
00:47 2.6 °C -0.3 °C 1019.2 hPa Calm   4.8 km/h 81 % 0.0 mm
00:52 2.4 °C -0.4 °C 1019.2 hPa Calm   1.6 km/h 82 % 0.0 mm
00:57 2.3 °C -0.3 °C 1018.8 hPa Calm   3.2 km/h 83 % 0.0 mm
01:02 2.3 °C -0.1 °C 1018.8 hPa Calm   3.2 km/h 84 % 0.0 mm
01:12 3.6 °C 0.6 °C 1019.2 hPa SW 3.2 km/h 4.8 km/h 81 % 0.0 mm
01:17 3.9 °C 0.4 °C 1018.8 hPa SSW 1.6 km/h 4.8 km/h 78 % 0.0 mm
01:22 3.7 °C 0.4 °C 1018.8 hPa SSW 3.2 km/h 4.8 km/h 79 % 0.0 mm
01:27 3.6 °C 0.3 °C 1018.8 hPa SSW 3.2 km/h 4.8 km/h 79 % 0.0 mm
01:32 3.7 °C 0.4 °C 1018.8 hPa SSW 1.6 km/h 4.8 km/h 79 % 0.0 mm
01:37 3.8 °C 0.5 °C 1018.8 hPa SW 1.6 km/h 4.8 km/h 79 % 0.0 mm
01:42 3.9 °C 0.4 °C 1018.8 hPa Calm   4.8 km/h 78 % 0.0 mm
01:47 3.8 °C 0.3 °C 1018.8 hPa Calm   4.8 km/h 78 % 0.0 mm
01:52 3.7 °C 0.2 °C 1018.8 hPa Calm   4.8 km/h 78 % 0.0 mm
01:57 3.6 °C 0.3 °C 1018.8 hPa Calm   1.6 km/h 79 % 0.0 mm
02:02 3.6 °C 0.3 °C 1018.8 hPa Calm   1.6 km/h 79 % 0.0 mm
02:12 3.1 °C 0.0 °C 1018.8 hPa Calm   1.6 km/h 80 % 0.0 mm
02:17 3.1 °C 0.2 °C 1018.8 hPa Calm     81 % 0.0 mm
02:22 2.9 °C -0.2 °C 1018.8 hPa Calm     80 % 0.0 mm
02:32 2.8 °C 0.0 °C 1018.8 hPa Calm     82 % 0.0 mm
02:37 2.8 °C 0.0 °C 1018.8 hPa Calm     82 % 0.0 mm
02:42 2.7 °C -0.1 °C 1018.8 hPa Calm     82 % 0.0 mm
02:47 2.5 °C -0.3 °C 1018.8 hPa Calm     82 % 0.0 mm
02:57 2.1 °C -0.3 °C 1018.8 hPa Calm     84 % 0.0 mm
03:02 1.9 °C -0.5 °C 1018.8 hPa Calm     84 % 0.0 mm
03:12 1.7 °C -0.6 °C 1018.8 hPa Calm     85 % 0.0 mm
03:17 1.6 °C -0.5 °C 1018.8 hPa Calm     86 % 0.0 mm
03:22 1.6 °C -0.5 °C 1018.8 hPa Calm     86 % 0.0 mm
03:32 1.8 °C -0.3 °C 1018.8 hPa Calm     86 % 0.0 mm
03:37 1.9 °C -0.2 °C 1018.8 hPa Calm     86 % 0.0 mm
03:42 1.9 °C -0.2 °C 1018.8 hPa Calm     86 % 0.0 mm
03:47 1.9 °C -0.4 °C 1018.8 hPa Calm     85 % 0.0 mm
03:52 1.8 °C -0.5 °C 1018.8 hPa Calm     85 % 0.0 mm
03:57 1.7 °C -0.4 °C 1018.8 hPa Calm     86 % 0.0 mm
04:02 1.7 °C -0.4 °C 1018.8 hPa Calm     86 % 0.0 mm
04:12 1.7 °C -0.2 °C 1018.5 hPa Calm   1.6 km/h 87 % 0.0 mm
04:17 1.7 °C -0.4 °C 1018.5 hPa Calm   1.6 km/h 86 % 0.0 mm
04:22 1.5 °C -0.6 °C 1018.5 hPa Calm   1.6 km/h 86 % 0.0 mm
04:27 1.3 °C -0.6 °C 1018.5 hPa Calm   1.6 km/h 87 % 0.0 mm
04:32 1.3 °C -0.5 °C 1018.5 hPa Calm   1.6 km/h 88 % 0.0 mm
04:37 1.3 °C -0.5 °C 1018.5 hPa Calm     88 % 0.0 mm
04:42 1.3 °C -0.5 °C 1018.5 hPa Calm     88 % 0.0 mm
04:47 1.3 °C -0.5 °C 1018.5 hPa Calm     88 % 0.0 mm
04:52 1.2 °C -0.6 °C 1018.5 hPa Calm     88 % 0.0 mm
04:57 1.1 °C -0.7 °C 1018.5 hPa Calm     88 % 0.0 mm
05:02 1.1 °C -0.7 °C 1018.5 hPa Calm     88 % 0.0 mm
05:07 1.1 °C -0.5 °C 1018.5 hPa Calm     89 % 0.0 mm
05:12 1.1 °C -0.5 °C 1018.5 hPa Calm     89 % 0.0 mm
05:22 1.2 °C -0.4 °C 1018.5 hPa Calm     89 % 0.0 mm
05:32 1.3 °C -0.3 °C 1018.5 hPa Calm     89 % 0.0 mm
05:37 1.3 °C -0.5 °C 1018.5 hPa Calm     88 % 0.0 mm
05:42 1.3 °C -0.5 °C 1018.5 hPa Calm     88 % 0.0 mm
05:47 1.3 °C -0.5 °C 1018.5 hPa Calm     88 % 0.0 mm
05:52 1.3 °C -0.5 °C 1018.5 hPa Calm     88 % 0.0 mm
05:57 1.2 °C -0.6 °C 1018.5 hPa Calm     88 % 0.0 mm
06:02 1.2 °C -0.6 °C 1018.5 hPa Calm     88 % 0.0 mm
06:07 1.1 °C -0.5 °C 1018.5 hPa Calm     89 % 0.0 mm
06:12 1.1 °C -0.5 °C 1018.5 hPa Calm     89 % 0.0 mm
06:17 1.2 °C -0.4 °C 1018.5 hPa Calm     89 % 0.0 mm
06:22 1.3 °C -0.3 °C 1018.5 hPa Calm     89 % 0.0 mm
06:27 1.4 °C -0.4 °C 1018.5 hPa Calm     88 % 0.0 mm
06:32 1.4 °C -0.4 °C 1018.5 hPa Calm     88 % 0.0 mm
06:42 1.3 °C -0.5 °C 1018.5 hPa Calm     88 % 0.0 mm
06:47 1.3 °C -0.3 °C 1018.5 hPa Calm     89 % 0.0 mm
06:52 1.3 °C -0.5 °C 1018.8 hPa NNE 1.6 km/h   88 % 0.0 mm
06:57 1.2 °C -0.4 °C 1018.8 hPa Calm     89 % 0.0 mm
07:02 1.2 °C -0.4 °C 1018.8 hPa Calm   3.2 km/h 89 % 0.0 mm
07:12 1.2 °C -0.4 °C 1018.8 hPa Calm   3.2 km/h 89 % 0.0 mm
07:17 1.2 °C -0.4 °C 1018.8 hPa Calm     89 % 0.0 mm
07:22 1.2 °C -0.4 °C 1018.8 hPa Calm     89 % 0.0 mm
07:32 1.1 °C -0.5 °C 1018.8 hPa Calm   1.6 km/h 89 % 0.0 mm
07:37 1.0 °C -0.6 °C 1018.5 hPa Calm     89 % 0.0 mm
07:42 0.9 °C -0.6 °C 1018.5 hPa Calm     90 % 0.0 mm
07:52 0.8 °C -0.7 °C 1018.8 hPa Calm   1.6 km/h 90 % 0.0 mm
08:02 0.9 °C -0.4 °C 1018.8 hPa Calm     91 % 0.0 mm
08:07 1.1 °C -0.2 °C 1019.2 hPa Calm     91 % 0.0 mm
08:12 1.3 °C -0.2 °C 1019.2 hPa Calm     90 % 0.0 mm
08:22 1.6 °C 0.0 °C 1018.8 hPa Calm     89 % 0.0 mm
08:32 1.6 °C 0.0 °C 1019.2 hPa Calm     89 % 0.0 mm
08:37 1.6 °C 0.0 °C 1019.2 hPa Calm   3.2 km/h 89 % 0.0 mm
08:42 1.6 °C 0.1 °C 1019.5 hPa Calm   3.2 km/h 90 % 0.0 mm
08:52 1.8 °C 0.2 °C 1019.5 hPa Calm   3.2 km/h 89 % 0.0 mm
09:02 2.2 °C 0.4 °C 1019.2 hPa Calm   1.6 km/h 88 % 0.0 mm
09:07 2.4 °C 0.6 °C 1018.8 hPa Calm     88 % 0.0 mm
09:12 2.6 °C 0.7 °C 1019.2 hPa Calm     87 % 0.0 mm
09:17 2.8 °C 0.9 °C 1019.5 hPa Calm   4.8 km/h 87 % 0.0 mm
09:22 2.9 °C 0.8 °C 1019.2 hPa Calm   4.8 km/h 86 % 0.0 mm
09:32 3.4 °C 1.0 °C 1019.2 hPa Calm   4.8 km/h 84 % 0.0 mm
09:42 3.9 °C 1.4 °C 1019.5 hPa Calm   1.6 km/h 84 % 0.0 mm
09:52 4.4 °C 1.9 °C 1019.5 hPa SSW 1.6 km/h 1.6 km/h 84 % 0.0 mm
10:02 4.9 °C 1.9 °C 1019.5 hPa South 1.6 km/h 3.2 km/h 81 % 0.0 mm
10:12 5.6 °C 2.4 °C 1019.5 hPa SW 4.8 km/h 4.8 km/h 80 % 0.0 mm
10:17 5.8 °C 2.3 °C 1019.2 hPa SSE 1.6 km/h 6.4 km/h 78 % 0.0 mm
10:22 6.0 °C 2.3 °C 1019.2 hPa SW 1.6 km/h 6.4 km/h 77 % 0.0 mm
10:32 6.4 °C 2.5 °C 1019.2 hPa SW 6.4 km/h 6.4 km/h 76 % 0.0 mm
10:42 6.8 °C 2.5 °C 1019.5 hPa SSW 8.0 km/h 11.3 km/h 74 % 0.0 mm
10:47 7.1 °C 2.4 °C 1019.5 hPa West 11.3 km/h 20.9 km/h 72 % 0.0 mm
10:52 7.2 °C 2.5 °C 1019.5 hPa SW 9.7 km/h 20.9 km/h 72 % 0.0 mm
10:57 7.3 °C 2.8 °C 1019.5 hPa SW 4.8 km/h 20.9 km/h 73 % 0.0 mm
11:02 7.3 °C 2.6 °C 1019.5 hPa SW 4.8 km/h 20.9 km/h 72 % 0.0 mm
11:12 7.5 °C 3.4 °C 1019.5 hPa SW 6.4 km/h 17.7 km/h 75 % 0.0 mm
11:17 7.6 °C 3.3 °C 1019.2 hPa SW 12.9 km/h 17.7 km/h 74 % 0.0 mm
11:22 7.8 °C 3.6 °C 1019.2 hPa SW 8.0 km/h 17.7 km/h 75 % 0.0 mm
11:32 8.0 °C 3.8 °C 1019.5 hPa SW 6.4 km/h 16.1 km/h 75 % 0.0 mm
11:42 8.4 °C 4.4 °C 1019.2 hPa SW 12.9 km/h 12.9 km/h 76 % 0.0 mm
11:52 8.6 °C 4.6 °C 1019.2 hPa SSW 11.3 km/h 17.7 km/h 76 % 0.0 mm
12:02 8.7 °C 4.5 °C 1019.2 hPa SW 14.5 km/h 22.5 km/h 75 % 0.0 mm
12:12 8.9 °C 4.9 °C 1019.2 hPa SW 14.5 km/h 24.1 km/h 76 % 0.0 mm
12:17 9.0 °C 5.0 °C 1019.2 hPa SW 14.5 km/h 24.1 km/h 76 % 0.0 mm
12:22 9.2 °C 5.2 °C 1018.8 hPa SW 16.1 km/h 24.1 km/h 76 % 0.0 mm
12:27 9.2 °C 5.2 °C 1018.8 hPa WSW 17.7 km/h 24.1 km/h 76 % 0.0 mm
12:32 9.2 °C 5.4 °C 1018.8 hPa SW 22.5 km/h 25.7 km/h 77 % 0.0 mm
12:42 9.3 °C 5.5 °C 1018.8 hPa SSW 12.9 km/h 25.7 km/h 77 % 0.0 mm
12:52 9.3 °C 5.5 °C 1018.8 hPa SSW 20.9 km/h 24.1 km/h 77 % 0.0 mm
12:57 9.3 °C 5.5 °C 1018.8 hPa SW 24.1 km/h 25.7 km/h 77 % 0.0 mm
13:02 9.4 °C 5.8 °C 1018.5 hPa SSW 14.5 km/h 25.7 km/h 78 % 0.0 mm
13:12 9.5 °C 5.9 °C 1018.5 hPa WSW 16.1 km/h 25.7 km/h 78 % 0.0 mm
13:17 9.6 °C 6.1 °C 1018.5 hPa SW 9.7 km/h 27.4 km/h 79 % 0.0 mm
13:22 9.6 °C 6.1 °C 1018.5 hPa WSW 16.1 km/h 27.4 km/h 79 % 0.0 mm
13:32 9.6 °C 6.3 °C 1018.2 hPa SW 19.3 km/h 29.0 km/h 80 % 0.0 mm
13:42 9.7 °C 6.2 °C 1018.2 hPa SW 16.1 km/h 29.0 km/h 79 % 0.0 mm
13:47 9.8 °C 6.5 °C 1018.2 hPa SSW 14.5 km/h 25.7 km/h 80 % 0.0 mm
13:52 9.8 °C 6.7 °C 1018.2 hPa SW 20.9 km/h 25.7 km/h 81 % 0.0 mm
14:02 9.8 °C 6.9 °C 1018.2 hPa SW 12.9 km/h 27.4 km/h 82 % 0.0 mm
14:12 9.9 °C 7.1 °C 1017.8 hPa WSW 9.7 km/h 27.4 km/h 83 % 0.0 mm
14:17 9.9 °C 7.1 °C 1017.8 hPa SW 14.5 km/h 24.1 km/h 83 % 0.0 mm
14:22 9.9 °C 7.1 °C 1017.8 hPa SW 12.9 km/h 24.1 km/h 83 % 0.0 mm
14:27 10.1 °C 7.5 °C 1017.8 hPa WSW 16.1 km/h 24.1 km/h 84 % 0.0 mm
14:32 10.2 °C 7.4 °C 1017.5 hPa West 22.5 km/h 24.1 km/h 83 % 0.0 mm
14:42 10.1 °C 7.5 °C 1017.5 hPa SW 12.9 km/h 22.5 km/h 84 % 0.0 mm
14:47 10.2 °C 7.8 °C 1017.5 hPa SW 17.7 km/h 22.5 km/h 85 % 0.0 mm
14:52 10.2 °C 7.8 °C 1017.5 hPa SW 9.7 km/h 22.5 km/h 85 % 0.0 mm
14:57 10.2 °C 7.8 °C 1017.5 hPa SW 16.1 km/h 22.5 km/h 85 % 0.0 mm
15:02 10.3 °C 7.9 °C 1017.5 hPa SSW 12.9 km/h 22.5 km/h 85 % 0.0 mm
15:12 10.3 °C 7.7 °C 1017.5 hPa SW 12.9 km/h 22.5 km/h 84 % 0.0 mm
15:17 10.3 °C 7.7 °C 1017.5 hPa SW 8.0 km/h 20.9 km/h 84 % 0.0 mm
15:22 10.4 °C 7.8 °C 1017.2 hPa WSW 8.0 km/h 20.9 km/h 84 % 0.0 mm
15:27 10.5 °C 7.9 °C 1017.2 hPa SW 11.3 km/h 17.7 km/h 84 % 0.0 mm
15:32 10.6 °C 8.0 °C 1017.2 hPa SSW 16.1 km/h 17.7 km/h 84 % 0.0 mm
15:37 10.6 °C 8.2 °C 1017.2 hPa SSE 14.5 km/h 20.9 km/h 85 % 0.0 mm
15:42 10.6 °C 8.2 °C 1017.2 hPa SW 12.9 km/h 20.9 km/h 85 % 0.0 mm
15:47 10.6 °C 8.2 °C 1017.2 hPa SSW 4.8 km/h 20.9 km/h 85 % 0.0 mm
15:52 10.6 °C 8.2 °C 1017.2 hPa SSW 8.0 km/h 20.9 km/h 85 % 0.0 mm
15:57 10.6 °C 8.2 °C 1017.2 hPa SW 4.8 km/h 17.7 km/h 85 % 0.0 mm
16:02 10.6 °C 8.2 °C 1017.2 hPa WSW 6.4 km/h 17.7 km/h 85 % 0.0 mm
16:12 10.4 °C 8.2 °C 1017.2 hPa SSW 6.4 km/h 16.1 km/h 86 % 0.0 mm
16:17 10.4 °C 8.2 °C 1017.2 hPa SSW 8.0 km/h 17.7 km/h 86 % 0.0 mm
16:22 10.4 °C 8.2 °C 1017.2 hPa SW 9.7 km/h 17.7 km/h 86 % 0.0 mm
16:32 10.6 °C 8.5 °C 1017.2 hPa SW 8.0 km/h 16.1 km/h 87 % 0.0 mm
16:37 10.6 °C 8.5 °C 1017.2 hPa SSW 9.7 km/h 16.1 km/h 87 % 0.0 mm
16:42 10.4 °C 8.5 °C 1017.2 hPa SW 9.7 km/h 16.1 km/h 88 % 0.0 mm
16:47 10.3 °C 8.6 °C 1017.2 hPa SW 8.0 km/h 16.1 km/h 89 % 0.0 mm
16:52 10.2 °C 8.5 °C 1017.2 hPa SSW 4.8 km/h 14.5 km/h 89 % 0.0 mm
16:57 10.2 °C 8.5 °C 1017.2 hPa SW 4.8 km/h 12.9 km/h 89 % 0.0 mm
17:02 10.3 °C 8.6 °C 1017.2 hPa WSW 4.8 km/h 12.9 km/h 89 % 0.0 mm
17:07 10.5 °C 8.4 °C 1017.2 hPa SW 6.4 km/h 8.0 km/h 87 % 0.0 mm
17:12 10.7 °C 8.5 °C 1016.8 hPa SW 11.3 km/h 11.3 km/h 86 % 0.0 mm
17:17 10.8 °C 8.6 °C 1017.2 hPa SW 8.0 km/h 11.3 km/h 86 % 0.0 mm
17:22 10.9 °C 8.5 °C 1017.2 hPa SW 6.4 km/h 12.9 km/h 85 % 0.0 mm
17:27 10.9 °C 8.6 °C 1016.8 hPa SW 6.4 km/h 12.9 km/h 86 % 0.0 mm
17:32 10.8 °C 8.7 °C 1016.8 hPa SW 9.7 km/h 12.9 km/h 87 % 0.0 mm
17:37 10.7 °C 8.6 °C 1016.8 hPa SSW 8.0 km/h 12.9 km/h 87 % 0.0 mm
17:42 10.7 °C 8.6 °C 1016.8 hPa SW 6.4 km/h 12.9 km/h 87 % 0.0 mm
17:47 10.8 °C 8.6 °C 1016.8 hPa SSW 8.0 km/h 12.9 km/h 86 % 0.0 mm
17:52 10.8 °C 8.6 °C 1016.8 hPa SW 8.0 km/h 12.9 km/h 86 % 0.0 mm
17:57 10.8 °C 8.6 °C 1016.8 hPa SW 12.9 km/h 14.5 km/h 86 % 0.0 mm
18:02 10.9 °C 8.6 °C 1016.8 hPa SW 8.0 km/h 14.5 km/h 86 % 0.0 mm
18:12 10.8 °C 8.6 °C 1016.8 hPa SW 9.7 km/h 19.3 km/h 86 % 0.0 mm
18:17 10.7 °C 8.6 °C 1016.8 hPa SSE 6.4 km/h 19.3 km/h 87 % 0.0 mm
18:22 10.7 °C 8.6 °C 1016.8 hPa SW 12.9 km/h 17.7 km/h 87 % 0.0 mm
18:32 10.7 °C 8.6 °C 1016.8 hPa SSW 4.8 km/h 17.7 km/h 87 % 0.0 mm
18:37 10.6 °C 8.5 °C 1016.8 hPa SW 4.8 km/h 17.7 km/h 87 % 0.0 mm
18:42 10.6 °C 8.5 °C 1016.8 hPa SSW 6.4 km/h 16.1 km/h 87 % 0.0 mm
18:47 10.6 °C 8.5 °C 1016.8 hPa SW 16.1 km/h 16.1 km/h 87 % 0.0 mm
18:57 10.6 °C 8.7 °C 1016.8 hPa WSW 4.8 km/h 22.5 km/h 88 % 0.0 mm
19:02 10.5 °C 8.6 °C 1016.8 hPa SW 8.0 km/h 22.5 km/h 88 % 0.0 mm
19:12 10.4 °C 8.5 °C 1016.8 hPa SW 14.5 km/h 20.9 km/h 88 % 0.0 mm
19:17 10.3 °C 8.6 °C 1016.8 hPa SW 11.3 km/h 19.3 km/h 89 % 0.0 mm
19:22 10.2 °C 8.6 °C 1016.8 hPa SW 9.7 km/h 19.3 km/h 90 % 0.0 mm
19:32 10.1 °C 8.7 °C 1016.8 hPa SW 11.3 km/h 19.3 km/h 91 % 0.0 mm
19:42 10.1 °C 8.7 °C 1016.8 hPa SW 9.7 km/h 16.1 km/h 91 % 0.0 mm
19:47 10.0 °C 8.6 °C 1016.8 hPa SW 8.0 km/h 14.5 km/h 91 % 0.0 mm
19:52 9.9 °C 8.5 °C 1016.8 hPa SW 6.4 km/h 14.5 km/h 91 % 0.0 mm
19:57 9.9 °C 8.7 °C 1016.8 hPa SW 11.3 km/h 14.5 km/h 92 % 0.0 mm
20:02 9.9 °C 8.5 °C 1016.8 hPa SW 8.0 km/h 14.5 km/h 91 % 0.0 mm
20:07 10.0 °C 8.6 °C 1016.8 hPa SW 9.7 km/h 16.1 km/h 91 % 0.0 mm
20:12 10.0 °C 8.6 °C 1016.5 hPa SW 8.0 km/h 16.1 km/h 91 % 0.0 mm
20:17 9.9 °C 8.5 °C 1016.5 hPa SW 8.0 km/h 17.7 km/h 91 % 0.0 mm
20:22 9.9 °C 8.5 °C 1016.5 hPa WSW 12.9 km/h 17.7 km/h 91 % 0.0 mm
20:32 9.9 °C 8.3 °C 1016.5 hPa SW 16.1 km/h 17.7 km/h 90 % 0.0 mm
20:42 9.9 °C 8.3 °C 1016.5 hPa SSW 6.4 km/h 16.1 km/h 90 % 0.0 mm
20:47 10.0 °C 8.4 °C 1016.5 hPa SW 8.0 km/h 16.1 km/h 90 % 0.0 mm
20:52 10.0 °C 8.4 °C 1016.5 hPa SW 11.3 km/h 16.1 km/h 90 % 0.0 mm
20:57 9.9 °C 8.3 °C 1016.5 hPa SSW 1.6 km/h 14.5 km/h 90 % 0.0 mm
21:02 10.0 °C 8.4 °C 1016.1 hPa SW 6.4 km/h 14.5 km/h 90 % 0.0 mm
21:12 10.0 °C 8.4 °C 1016.1 hPa SW 9.7 km/h 14.5 km/h 90 % 0.0 mm
21:17 9.9 °C 8.3 °C 1016.1 hPa SW 8.0 km/h 16.1 km/h 90 % 0.0 mm
21:22 9.9 °C 8.3 °C 1016.1 hPa SSW 8.0 km/h 16.1 km/h 90 % 0.0 mm
21:32 9.8 °C 8.2 °C 1016.1 hPa SSW 12.9 km/h 14.5 km/h 90 % 0.0 mm
21:37 9.8 °C 8.2 °C 1016.1 hPa SW 14.5 km/h 19.3 km/h 90 % 0.0 mm
21:42 9.8 °C 8.2 °C 1016.1 hPa SW 12.9 km/h 19.3 km/h 90 % 0.0 mm
21:47 9.7 °C 8.1 °C 1016.1 hPa SSW 6.4 km/h 17.7 km/h 90 % 0.0 mm
21:52 9.6 °C 8.0 °C 1015.8 hPa SSW 6.4 km/h 17.7 km/h 90 % 0.0 mm
21:57 9.6 °C 8.0 °C 1015.8 hPa SSW 8.0 km/h 14.5 km/h 90 % 0.0 mm
22:02 9.6 °C 8.0 °C 1015.8 hPa SSW 9.7 km/h 14.5 km/h 90 % 0.0 mm
22:12 9.6 °C 8.0 °C 1015.8 hPa SSW 11.3 km/h 16.1 km/h 90 % 0.0 mm
22:17 9.6 °C 8.0 °C 1015.8 hPa SSW 9.7 km/h 17.7 km/h 90 % 0.0 mm
22:22 9.6 °C 8.0 °C 1015.8 hPa SW 12.9 km/h 19.3 km/h 90 % 0.0 mm
22:27 9.6 °C 8.0 °C 1015.8 hPa SSW 9.7 km/h 19.3 km/h 90 % 0.0 mm
22:32 9.6 °C 8.0 °C 1015.5 hPa SSW 12.9 km/h 19.3 km/h 90 % 0.0 mm
22:42 9.7 °C 8.0 °C 1015.5 hPa SSW 8.0 km/h 19.3 km/h 89 % 0.0 mm
22:47 9.7 °C 8.0 °C 1015.5 hPa SW 17.7 km/h 20.9 km/h 89 % 0.0 mm
22:52 9.8 °C 8.1 °C 1015.5 hPa SW 8.0 km/h 20.9 km/h 89 % 0.0 mm
23:02 9.7 °C 8.0 °C 1015.5 hPa SSW 8.0 km/h 19.3 km/h 89 % 0.0 mm
23:12 9.6 °C 7.9 °C 1015.5 hPa SW 12.9 km/h 19.3 km/h 89 % 0.0 mm
23:17 9.6 °C 7.9 °C 1015.1 hPa SSW 9.7 km/h 16.1 km/h 89 % 0.0 mm
23:22 9.6 °C 7.9 °C 1015.5 hPa SSW 6.4 km/h 17.7 km/h 89 % 0.0 mm
23:27 9.6 °C 7.9 °C 1015.1 hPa SSW 9.7 km/h 17.7 km/h 89 % 0.0 mm
23:32 9.6 °C 7.9 °C 1015.1 hPa SSW 11.3 km/h 17.7 km/h 89 % 0.0 mm
23:37 9.6 °C 7.9 °C 1015.1 hPa SSW 11.3 km/h 17.7 km/h 89 % 0.0 mm
23:42 9.5 °C 7.8 °C 1015.1 hPa SSW 4.8 km/h 17.7 km/h 89 % 0.0 mm
23:47 9.4 °C 7.7 °C 1014.8 hPa South 8.0 km/h 16.1 km/h 89 % 0.0 mm
23:52 9.4 °C 7.7 °C 1014.8 hPa SW 11.3 km/h 16.1 km/h 89 % 0.0 mm
23:57 9.4 °C 7.7 °C 1014.8 hPa SSW 11.3 km/h 14.5 km/h 89 % 0.0 mm
Meteo18
Compliments of Weather Underground - 4 mb

Script developed by  Jim McMurry - jmcmurry@mwt.net Adapted for the template by  Wim van der Kuil - Leuven-Template.eu

You find our weather info also at:

European Weather Network

Weather Underground

Equipment we use:

Weather-station
Davis Vue

Weather-program
Meteohub

Weather-server
Raspberry PI 2 B+

Provider
1 and 1

Davis Vue

Meteohub

Raspberry PI 2 B+

1 and 1